GOES 17

Last updated on Sun Jun 21 2026 00:02:47 GMT+0000 (Coordinated Universal Time)

1 43226U 18022A 26171.38933449 -.00000187 00000+0 00000+0 0 9995 2 43226 0.9463 85.6559 0000598 28.1563 205.4138 1.00269480 30451
UTC large
Height (km)
Speed (km/s)
/
Latitude / Longitude
Inclination (degrees)
Orbital Period (minutes)
Azimuth
Elevation
Range (km)
Doppler Factor

Next 0 passes for location: London (51.5072 / 0.1276)

No passes found over London.
GOES 17